Location: ??????
(41.3164°N, 22.6615°E)
Time: 03:54:38
(UTC+00:00)

deb Kosmos-1275 - Visible Passes

Search period start: 28 January 2023 00:00
Search period end: 07 February 2023 00:00
Orbit: 816 x 847 km, 82.9° (Epoch: 27 January)

Date Brightness Start Highest point End Pass type
(mag) Time Alt. Az. Time Alt. Az. Time Alt. Az.
28 Jan ? 16:07:59 10° SW 16:13:09 39° WNW 16:18:22 10° N visible
01 Feb ? 16:44:01 10° W 16:46:01 12° WNW 16:48:02 10° NW visible
02 Feb ? 16:25:13 10° W 16:28:17 15° WNW 16:31:22 10° NNW visible
